[[{"header":{"parameterUnit":"m.s-1","parameterCategory":1,"la1":30.2992,"la2":30.254,"lo1":-89.0895,"lo2":-89.0443,"dy":0.0025,"dx":0.0025,"nx":19,"ny":19,"refTime":"2026-03-25T09:00:00:Z","depth":0,"parameterNumber":2,"parameterNumberName":"U-component_of_WINDS"},"data":[0,0,0,-1.9812,-1.9813,-1.9826,-1.9826,-1.9861,-1.9861,0,0,0,0,0,0,0,0,0,0,0,-1.9817,-1.9818,-1.9812,-1.9813,-1.9826,-1.9826,-1.9861,-1.9861,0,0,0,0,0,0,0,0,0,0,0,-1.9817,-1.9818,-1.9818,-1.9813,-1.9826,-1.9826,-1.9861,-1.9844,0,0,0,0,0,0,0,0,0,0,-1.9828,-1.9842,-1.9818,-1.9818,-1.9813,-1.9826,-1.9826,-1.9843,-1.9845,-1.9862,0,-1.9878,0,-1.987,-1.9865,-1.9865,0,0,0,-1.9806,-1.984,-1.9836,-1.9818,-1.9813,-1.9826,-1.9818,-1.9844,-1.9847,-1.9865,-1.9878,-1.9879,-1.9871,-1.9865,-1.9865,-1.998,-1.9981,0,0,-1.9805,-1.9825,-1.9834,-1.9838,-1.9835,-1.9818,-1.9819,-1.9846,-1.9862,-1.9878,-1.9879,-1.9871,-1.9865,-1.9866,-1.9979,-1.998,0,0,0,-1.9808,-1.9825,-1.9819,-1.9837,-1.9838,-1.9818,-1.9819,-1.986,-1.9857,-1.988,-1.9872,-1.9866,-1.9866,-1.9978,-1.9979,-2.004,0,0,0,-1.9807,-1.9826,-1.9819,-1.9831,-1.9837,-1.9849,-1.9834,-1.9855,-1.9857,-1.9871,-1.9866,-1.9867,-1.9977,-1.9979,-2.0036,-2.0066,0,0,0,-1.9813,-1.9826,-1.9832,-1.9832,-1.9839,-1.9848,-1.9846,-1.9855,-1.9853,-1.9865,-1.9867,-1.9976,-1.9978,-2.0033,-2.006,-2.0102,0,0,0,-1.9826,-1.9885,-1.9833,-1.9896,-1.9839,-1.9886,-1.9845,-1.9879,-1.9897,-1.9866,-1.9977,-1.9979,-2.0032,-2.0057,-2.0099,-2.0141,-2.016,0,0,-1.9912,-1.9896,-1.9932,-1.9886,-1.9947,-1.9882,-1.9953,-1.995,-1.9933,-1.9966,-1.9968,-2.0038,-2.006,-2.0101,-2.0262,-2.0277,0,0,0,-1.9966,-1.9992,-2.0004,-2.0021,-2.0021,-2.0024,-2.0008,-2.0008,-2.0034,-1.9954,-2.0064,-2.0076,-2.01,-2.0119,-2.0132,-2.0151,-1.9989,-1.9989,-1.9988,-2.0115,-2.0091,-2.0149,-2.0128,-2.0145,-2.013,-2.0142,-2.0139,-2.0109,-2.0136,-2.0145,-2.0245,-2.0268,-2.0278,-2.0298,-2.0165,-2.0165,-2.0166,-2.0166,-2.0239,-2.0272,-2.0233,-2.0275,-2.025,-2.0285,-2.0274,-2.0252,-2.0282,-2.0236,-2.0255,-2.0207,-2.0296,-2.0312,-2.017,-2.0169,-2.0169,-2.0168,-2.0168,-2.0334,-2.0346,-2.0344,-2.0368,-2.039,-2.0366,-2.0397,-2.0373,-2.0351,-2.037,-2.0378,-2.0377,-2.0373,-2.0376,-2.0376,-2.0376,-2.0377,-2.0377,-2.0377,-2.0433,-2.0429,-2.0458,-2.0464,-2.0473,-2.0482,-2.0468,-2.0477,-2.048,-2.046,-2.046,-2.0429,-2.0309,-2.0279,-2.0382,-2.0381,-2.0381,-2.038,-2.038,-2.0567,-2.0534,-2.0578,-2.0587,-2.0593,-2.0617,-2.0586,-2.0606,-2.061,-2.0626,-2.0591,-2.0506,-2.0489,-2.0478,-2.0453,-2.0595,-2.0595,-2.0595,-2.0595,-2.0648,-2.0637,-2.0678,-2.0694,-2.0707,-2.0685,-2.0738,-2.0729,-2.0714,-2.0715,-2.0691,-2.0657,-2.0647,-2.0635,-2.0621,-2.0598,-2.0774,-2.0774,-2.0774,-2.0729,-2.0719,-2.0768,-2.0753,-2.0756,-2.076,-2.0809,-2.0831,-2.0807,-2.0781,-2.0716,-2.0708,-2.0652,-2.0635,-2.0606,-2.0585,-2.0542,0,0]},{"header":{"parameterUnit":"m.s-1","parameterCategory":1,"la1":30.2992,"la2":30.254,"lo1":-89.0895,"lo2":-89.0443,"dy":0.0025,"dx":0.0025,"nx":19,"ny":19,"refTime":"2026-03-25T09:00:00:Z","depth":0,"parameterNumber":3,"parameterNumberName":"V-component_of_WINDS"},"data":[0,0,0,3.6209,3.6211,3.6297,3.6298,3.6404,3.6405,0,0,0,0,0,0,0,0,0,0,0,3.6181,3.6181,3.6209,3.6211,3.6297,3.6298,3.6404,3.6405,0,0,0,0,0,0,0,0,0,0,0,3.618,3.6181,3.6182,3.6211,3.6297,3.6298,3.6404,3.634,0,0,0,0,0,0,0,0,0,0,3.6256,3.6228,3.6181,3.6182,3.6212,3.6297,3.6298,3.6337,3.6344,3.6363,0,3.638,0,3.6394,3.6412,3.6412,0,0,0,3.6212,3.6222,3.6248,3.6182,3.6212,3.6297,3.6259,3.6341,3.6349,3.6372,3.6382,3.6386,3.6396,3.6413,3.6413,3.6521,3.6522,0,0,3.6207,3.6195,3.6243,3.6253,3.624,3.6256,3.6261,3.6346,3.6354,3.6382,3.6388,3.6398,3.6413,3.6414,3.6521,3.6522,0,0,0,3.6193,3.6191,3.6215,3.6249,3.6264,3.6258,3.6265,3.6351,3.636,3.6389,3.6399,3.6414,3.6415,3.6521,3.6521,3.6532,0,0,0,3.619,3.6183,3.6213,3.6206,3.6263,3.6309,3.6268,3.6354,3.6364,3.6398,3.6414,3.6416,3.652,3.6521,3.653,3.6538,0,0,0,3.6176,3.6181,3.6193,3.6205,3.6242,3.6308,3.6321,3.6356,3.637,3.6412,3.6416,3.652,3.6521,3.6529,3.6537,3.6564,0,0,0,3.6157,3.62,3.6193,3.6244,3.6241,3.6313,3.6321,3.6375,3.6413,3.6414,3.652,3.6521,3.6529,3.6535,3.6563,3.6586,3.6594,0,0,3.6204,3.6205,3.6236,3.6233,3.6303,3.6301,3.6373,3.6419,3.6434,3.6491,3.6494,3.6531,3.6536,3.6564,3.6643,3.665,0,0,0,3.6247,3.6269,3.6291,3.6327,3.6364,3.6396,3.6433,3.645,3.65,3.6461,3.6548,3.6552,3.6569,3.658,3.6586,3.6601,3.6526,3.6526,3.6526,3.6295,3.6313,3.6366,3.6395,3.643,3.6468,3.6499,3.6528,3.6535,3.6556,3.6573,3.6619,3.6632,3.6636,3.6652,3.6586,3.6586,3.6586,3.6586,3.6366,3.6401,3.6411,3.6466,3.6485,3.6532,3.6571,3.6574,3.6621,3.6607,3.6622,3.6606,3.6643,3.6658,3.6587,3.6587,3.6587,3.6586,3.6586,3.64,3.642,3.6441,3.6496,3.6537,3.6564,3.6609,3.6624,3.6639,3.6654,3.6675,3.6675,3.6677,3.6663,3.6663,3.6663,3.6663,3.6663,3.6664,3.6427,3.6451,3.6487,3.6531,3.6557,3.6593,3.6633,3.6659,3.6691,3.6699,3.6699,3.6705,3.6643,3.6627,3.6666,3.6666,3.6665,3.6665,3.6665,3.6494,3.6482,3.6537,3.6564,3.6617,3.6657,3.6676,3.6728,3.6752,3.6774,3.6776,3.6728,3.6729,3.6725,3.6713,3.6771,3.6771,3.6771,3.6771,3.6523,3.6526,3.6588,3.6629,3.6671,3.6694,3.6757,3.6789,3.6819,3.6835,3.6829,3.6813,3.6808,3.6813,3.6807,3.6796,3.6874,3.6874,3.6874,3.6566,3.6574,3.6625,3.6655,3.6699,3.6736,3.6796,3.6843,3.6874,3.6879,3.6848,3.6844,3.6819,3.681,3.6813,3.6803,3.6783,0,0]}]]